Location: Archamps
(46.1365°N, 6.1329°E)
Time: 17:49:11
(UTC+00:00)

Cosmos 2278 - Pass Details

Date: 28 January 2023
Orbit: 838 x 853 km, 71.1° (Epoch: 29 March)

Event Time Altitude Azimuth Distance (km) Brightness Sun altitude
Rises 17:39:10 0° 183° (S) 3,380 7.1 -11.4°
Reaches altitude 10° 17:41:42 10° 176° (S) 2,452 6.2 -11.8°
Maximum altitude 17:46:58 42° 107° (ESE) 1,184 4.1 -12.7°
Enters shadow 17:52:02 11° 39° (NE) 2,389 5.6 -13.6°
